289  
ASUS42 KKEY 202210  
RWRKEY  
 
FLORIDA REGIONAL WEATHER ROUNDUP FOR THE FLORIDA KEYS  
NATIONAL WEATHER SERVICE KEY WEST FLORIDA  
600 PM EDT WED AUG 20 2014  
   
..SOUTH FLORIDA AND THE KEYS
 
 
 
CITY SKY/WX TMP DP RH WIND PRES REMARKS
 
FORT MYERS CLOUDY 83 72 69 SW9 30.06R THUNDER  
SW REGIONAL AP CLOUDY 82 72 71 SW14 30.07R  
NAPLES CLOUDY 74 74 100 SW7 30.08R THUNDER  
MIAMI PTSUNNY 88 76 67 E8 30.05F HX 99  
WEST KENDALL MOSUNNY 90 76 63 E9 30.05F HX 101  
HOMESTEAD MOSUNNY 90 76 62 E8 30.04F HX 101  
MARATHON MOSUNNY 87 76 69 NE5 30.04F HX 97  
BOCA CHICA NAS PTSUNNY 81 76 84 E5 30.05S  
KEY WEST INTL CLOUDY 82 73 74 CALM 30.06F  
   
..INTERNATIONAL WEATHER
 
 
 
CITY SKY/WX TMP DP RH WIND PRES REMARKS
 
NASSAU BAHAMAS MOSUNNY 88 75 66 SE5 30.07S HX 97  
CANCUN MEXICO MOSUNNY 90 77 66 E10 30.02S HX 102  
COZUMEL MEXICO MOSUNNY 86 77 74 NE14 30.00F HX 97  
 
ADJACENT COASTAL WATERS...  
 
STATION/POSITION TIME SKY/WX TEMP WIND PRES WAVE
 
AIR SEA DIR/SP/G HT/PER  
(UTC) (F) (DEG/KT/KT) (MB) (FT/S)  
PULASKI SHOAL LI 2200 86 60/ 11/ 12 1017.6F  
SAND KEY 2200 80 170/ 9/ 12 1018.1R  
SOMBRERO KEY 2200 89 150/ 7/ 8 1017.9F  
LONG KEY 2200 85 92 10/ 3/ 6 1018.0F  
MOLASSES REEF 2200 86 89 100/ 5/ 7 1017.4F  
FOWEY ROCKS 2200 86 88 100/ 7/ 9 1017.8F  
BUOY 42080 NOT AVBL  
 

 
 
CLICK HERE TO GO TO PREVIOUS BULLETINS.

The Nexlab FL Page Main Text Page